• In Austria
  • List of Countries
  • For 7 days
  • Water Temperature
  • Satellite Maps
  • Weather Map
  • News
  • Weather Widgets
  • user-avatar
    Login

    Hourly Weather Río Gallegos

    Today, 17 December, Sunday

    Time Temperature Precipitation Wind Pressure Humidity
    00:00 +3°C° 0 mm 10 mps 751 mmHg 63%
    01:00 +3°C° 0 mm 9 mps 751 mmHg 67%
    02:00 +3°C° 0 mm 9 mps 751 mmHg 68%
    03:00 +3°C° 0 mm 9 mps 751 mmHg 69%
    04:00 +3°C° 0 mm 9 mps 752 mmHg 70%
    05:00 +5°C° 0 mm 9 mps 751 mmHg 65%
    06:00 +6°C° 0 mm 9 mps 751 mmHg 59%
    07:00 +9°C° 0 mm 8 mps 751 mmHg 52%
    08:00 +10°C° 0.1 mm 8 mps 751 mmHg 50%
    09:00 +11°C° 0.1 mm 9 mps 750 mmHg 48%
    10:00 +12°C° 0.1 mm 9 mps 749 mmHg 46%
    11:00 +13°C° 0.1 mm 10 mps 749 mmHg 45%
    12:00 +14°C° 0.1 mm 10 mps 748 mmHg 43%
    13:00 +16°C° 0.1 mm 11 mps 748 mmHg 41%
    14:00 +15°C° 0 mm 12 mps 747 mmHg 39%
    15:00 +15°C° 0 mm 13 mps 747 mmHg 37%
    16:00 +15°C° 0 mm 15 mps 747 mmHg 35%
    17:00 +14°C° 0 mm 14 mps 747 mmHg 39%
    18:00 +12°C° 0 mm 14 mps 747 mmHg 44%
    19:00 +10°C° 0 mm 14 mps 747 mmHg 49%
    20:00 +9°C° 0 mm 13 mps 748 mmHg 52%
    21:00 +8°C° 0 mm 12 mps 748 mmHg 55%
    22:00 +7°C° 0 mm 12 mps 748 mmHg 57%
    23:00 +5°C° 0 mm 12 mps 749 mmHg 59%

    Tomorrow, 18 December, Monday

    Time Temperature Precipitation Wind Pressure Humidity
    00:00 +5°C° 0 mm 12 mps 749 mmHg 60%
    01:00 +5°C° 0 mm 13 mps 749 mmHg 61%
    02:00 +5°C° 0 mm 12 mps 749 mmHg 62%
    03:00 +4°C° 0 mm 12 mps 750 mmHg 62%
    04:00 +4°C° 0 mm 11 mps 750 mmHg 62%
    05:00 +5°C° 0 mm 13 mps 750 mmHg 57%
    06:00 +8°C° 0 mm 14 mps 751 mmHg 52%
    07:00 +9°C° 0 mm 15 mps 751 mmHg 47%
    08:00 +9°C° 0 mm 14 mps 751 mmHg 46%
    09:00 +10°C° 0 mm 14 mps 752 mmHg 44%
    10:00 +12°C° 0 mm 14 mps 752 mmHg 43%
    11:00 +12°C° 0 mm 14 mps 753 mmHg 43%
    12:00 +12°C° 0 mm 13 mps 753 mmHg 42%
    13:00 +12°C° 0 mm 13 mps 753 mmHg 41%
    14:00 +12°C° 0 mm 12 mps 754 mmHg 42%
    15:00 +12°C° 0 mm 12 mps 754 mmHg 43%
    16:00 +12°C° 0 mm 11 mps 755 mmHg 45%
    17:00 +12°C° 0 mm 10 mps 755 mmHg 47%
    18:00 +11°C° 0 mm 8 mps 755 mmHg 49%
    19:00 +11°C° 0 mm 7 mps 756 mmHg 52%
    20:00 +10°C° 0.1 mm 6 mps 756 mmHg 56%
    21:00 +10°C° 0.1 mm 5 mps 756 mmHg 59%
    22:00 +10°C° 0.1 mm 4 mps 757 mmHg 63%
    23:00 +10°C° 0 mm 4 mps 756 mmHg 65%

    Day after tomorrow, 19 December, Tuesday

    Time Temperature Precipitation Wind Pressure Humidity
    00:00 +8°C° 0 mm 4 mps 756 mmHg 67%
    01:00 +9°C° 0 mm 3 mps 756 mmHg 68%
    02:00 +8°C° 0 mm 4 mps 755 mmHg 69%
    03:00 +8°C° 0 mm 4 mps 755 mmHg 70%
    04:00 +8°C° 0 mm 4 mps 755 mmHg 71%
    05:00 +9°C° 0 mm 5 mps 754 mmHg 66%
    06:00 +10°C° 0 mm 6 mps 754 mmHg 61%
    07:00 +12°C° 0 mm 7 mps 753 mmHg 55%
    08:00 +14°C° 0 mm 7 mps 753 mmHg 56%
    09:00 +15°C° 0 mm 7 mps 752 mmHg 57%
    10:00 +15°C° 0 mm 7 mps 751 mmHg 58%
    11:00 +16°C° 0 mm 7 mps 750 mmHg 55%
    12:00 +17°C° 0 mm 6 mps 749 mmHg 52%
    13:00 +19°C° 0 mm 6 mps 748 mmHg 50%
    14:00 +17°C° 0 mm 7 mps 748 mmHg 52%
    15:00 +16°C° 0 mm 7 mps 747 mmHg 54%
    16:00 +16°C° 0 mm 8 mps 746 mmHg 56%
    17:00 +16°C° 0 mm 7 mps 745 mmHg 57%
    18:00 +16°C° 0 mm 6 mps 744 mmHg 59%
    19:00 +16°C° 0 mm 5 mps 743 mmHg 60%
    20:00 +16°C° 0.1 mm 5 mps 743 mmHg 62%
    21:00 +16°C° 0.1 mm 5 mps 742 mmHg 65%
    22:00 +15°C° 0.1 mm 6 mps 742 mmHg 67%
    23:00 +15°C° 0 mm 6 mps 740 mmHg 67%

    20 December, Wednesday

    Time Temperature Precipitation Wind Pressure Humidity
    00:00 +15°C° 0 mm 5 mps 739 mmHg 68%
    01:00 +15°C° 0 mm 5 mps 738 mmHg 68%
    02:00 +15°C° 0 mm 6 mps 737 mmHg 66%
    03:00 +15°C° 0 mm 6 mps 736 mmHg 65%
    04:00 +15°C° 0 mm 7 mps 735 mmHg 63%
    05:00 +13°C° 0.2 mm 8 mps 735 mmHg 65%
    06:00 +12°C° 0.2 mm 9 mps 734 mmHg 67%
    07:00 +11°C° 0.2 mm 10 mps 734 mmHg 68%
    08:00 +11°C° 0.7 mm 11 mps 735 mmHg 67%
    09:00 +9°C° 0.7 mm 12 mps 735 mmHg 65%
    10:00 +8°C° 0.7 mm 13 mps 736 mmHg 63%
    11:00 +9°C° 0.3 mm 13 mps 737 mmHg 57%
    12:00 +10°C° 0.3 mm 13 mps 738 mmHg 51%
    13:00 +12°C° 0.3 mm 13 mps 738 mmHg 45%
    14:00 +10°C° 0.2 mm 13 mps 739 mmHg 43%
    15:00 +10°C° 0.2 mm 13 mps 740 mmHg 42%
    16:00 +10°C° 0.2 mm 13 mps 740 mmHg 40%
    17:00 +9°C° 0 mm 13 mps 741 mmHg 42%
    18:00 +9°C° 0 mm 12 mps 741 mmHg 44%
    19:00 +8°C° 0 mm 11 mps 742 mmHg 46%
    20:00 +7°C° 0 mm 11 mps 742 mmHg 49%
    21:00 +6°C° 0 mm 10 mps 743 mmHg 52%
    22:00 +5°C° 0 mm 10 mps 743 mmHg 55%
    23:00 +5°C° 0 mm 10 mps 743 mmHg 55%

    21 December, Thursday

    Time Temperature Precipitation Wind Pressure Humidity
    00:00 +5°C° 0 mm 10 mps 743 mmHg 55%
    01:00 +3°C° 0 mm 10 mps 743 mmHg 55%
    02:00 +5°C° 0 mm 9 mps 744 mmHg 55%
    03:00 +5°C° 0 mm 8 mps 744 mmHg 54%
    04:00 +5°C° 0 mm 8 mps 744 mmHg 54%
    05:00 +6°C° 0 mm 8 mps 743 mmHg 50%
    06:00 +7°C° 0 mm 8 mps 743 mmHg 46%
    07:00 +10°C° 0 mm 8 mps 743 mmHg 41%
    08:00 +10°C° 0.2 mm 8 mps 742 mmHg 42%
    09:00 +11°C° 0.2 mm 7 mps 742 mmHg 42%
    10:00 +11°C° 0.2 mm 7 mps 741 mmHg 43%
    11:00 +11°C° 0.1 mm 8 mps 741 mmHg 42%
    12:00 +12°C° 0.1 mm 10 mps 741 mmHg 41%
    13:00 +12°C° 0.1 mm 11 mps 741 mmHg 40%
    14:00 +12°C° 0.1 mm 11 mps 741 mmHg 40%
    15:00 +11°C° 0.1 mm 11 mps 741 mmHg 40%
    16:00 +11°C° 0.1 mm 11 mps 742 mmHg 41%
    17:00 +9°C° 0 mm 11 mps 742 mmHg 43%
    18:00 +8°C° 0 mm 10 mps 742 mmHg 45%
    19:00 +8°C° 0 mm 10 mps 743 mmHg 47%
    20:00 +7°C° 0 mm 9 mps 743 mmHg 50%
    21:00 +6°C° 0 mm 9 mps 744 mmHg 53%
    22:00 +5°C° 0 mm 9 mps 744 mmHg 56%
    23:00 +3°C° 0 mm 9 mps 744 mmHg 57%

    22 December, Friday

    Time Temperature Precipitation Wind Pressure Humidity
    00:00 +3°C° 0 mm 9 mps 744 mmHg 57%
    01:00 +2°C° 0 mm 9 mps 744 mmHg 58%
    02:00 +2°C° 0 mm 9 mps 745 mmHg 58%
    03:00 +2°C° 0 mm 9 mps 745 mmHg 58%
    04:00 +2°C° 0 mm 9 mps 745 mmHg 58%
    05:00 +3°C° 0 mm 10 mps 745 mmHg 54%
    06:00 +4°C° 0 mm 11 mps 746 mmHg 50%
    07:00 +5°C° 0 mm 12 mps 746 mmHg 46%
    08:00 +7°C° 0 mm 12 mps 746 mmHg 45%
    09:00 +7°C° 0 mm 12 mps 746 mmHg 43%
    10:00 +8°C° 0 mm 12 mps 746 mmHg 42%
    11:00 +8°C° 0.2 mm 12 mps 746 mmHg 42%
    12:00 +9°C° 0.2 mm 12 mps 746 mmHg 42%
    13:00 +9°C° 0.2 mm 13 mps 746 mmHg 43%
    14:00 +9°C° 0.2 mm 13 mps 746 mmHg 44%
    15:00 +8°C° 0.2 mm 13 mps 746 mmHg 45%
    16:00 +8°C° 0.2 mm 14 mps 747 mmHg 46%
    17:00 +8°C° 0.1 mm 13 mps 747 mmHg 48%
    18:00 +7°C° 0.1 mm 13 mps 748 mmHg 50%
    19:00 +7°C° 0.1 mm 12 mps 749 mmHg 52%
    20:00 +5°C° 0 mm 12 mps 749 mmHg 56%
    21:00 +4°C° 0 mm 12 mps 750 mmHg 60%
    22:00 +3°C° 0 mm 11 mps 750 mmHg 64%
    23:00 +3°C° 0 mm 12 mps 750 mmHg 65%
    Show more